Location: Kra?nica
(53.4833°N, 14.6167°E)
Time: 21:35:30
(UTC+00:00)

Cosmos 1300 Rocket - Pass Details

Date: 23 May 2024
Orbit: 597 x 624 km, 82.5° (Epoch: 20 June)

Event Time Altitude Azimuth Distance (km) Brightness Sun altitude
Rises 01:09:40 0° 346° (NNW) 2,881 7.7 -10.6°
Reaches altitude 10° 01:11:55 10° 343° (NNW) 1,968 6.8 -10.5°
Maximum altitude 01:16:12 62° 264° (W) 684 3.6 -10.1°
Drops below altitude 10° 01:20:26 10° 183° (S) 1,939 5.6 -9.8°
Enters shadow 01:20:34 - 183° (S) 1,993 5.6 -9.8°
